Time,TemperatureF,DewpointF,PressureIn,WindDirection,WindDirectionDegrees,WindSpeedMPH,WindSpeedGustMPH,Humidity,HourlyPrecipIn,Conditions,Clouds,dailyrainin,SoftwareType,DateUTC
2017-09-20 00:02:00,65.6,62.0,29.89,North,352,0.0,4.0,87,0.00,,,0.00,weatherlink.com 1.10,2017-09-20 04:02:00,
2017-09-20 00:19:00,65.5,62.0,29.89,North,7,0.0,5.0,88,0.00,,,0.00,weatherlink.com 1.10,2017-09-20 04:19:00,
2017-09-20 00:36:00,65.8,62.0,29.89,NNE,33,0.0,7.0,87,0.00,,,0.00,weatherlink.com 1.10,2017-09-20 04:36:00,
2017-09-20 00:50:00,66.2,62.0,29.89,NNW,333,0.0,2.0,86,0.00,,,0.00,weatherlink.com 1.10,2017-09-20 04:50:00,
2017-09-20 01:04:00,66.4,62.0,29.89,NW,321,0.0,6.0,86,0.00,,,0.00,weatherlink.com 1.10,2017-09-20 05:04:00,
2017-09-20 01:20:00,67.1,63.0,29.89,NE,40,1.0,7.0,85,0.00,,,0.00,weatherlink.com 1.10,2017-09-20 05:20:00,
2017-09-20 01:35:00,67.6,63.0,29.89,North,357,0.0,8.0,84,0.00,,,0.00,weatherlink.com 1.10,2017-09-20 05:35:00,
2017-09-20 01:50:00,68.0,63.0,29.89,NNE,16,0.0,12.0,84,0.00,,,0.00,weatherlink.com 1.10,2017-09-20 05:50:00,
2017-09-20 02:07:00,68.0,63.0,29.89,West,278,3.0,6.0,84,0.00,,,0.00,weatherlink.com 1.10,2017-09-20 06:07:00,
2017-09-20 02:21:00,67.9,63.0,29.89,North,7,0.0,6.0,84,0.00,,,0.00,weatherlink.com 1.10,2017-09-20 06:21:00,
2017-09-20 02:36:00,67.6,63.0,29.89,NW,315,0.0,5.0,84,0.00,,,0.00,weatherlink.com 1.10,2017-09-20 06:36:00,
2017-09-20 02:51:00,67.4,63.0,29.89,WNW,303,0.0,5.0,85,0.00,,,0.00,weatherlink.com 1.10,2017-09-20 06:51:00,
2017-09-20 03:06:00,67.2,63.0,29.88,NW,317,0.0,5.0,85,0.00,,,0.00,weatherlink.com 1.10,2017-09-20 07:06:00,
2017-09-20 03:22:00,67.4,63.0,29.88,North,9,0.0,8.0,85,0.00,,,0.00,weatherlink.com 1.10,2017-09-20 07:22:00,
2017-09-20 03:37:00,67.7,63.0,29.87,NW,319,0.0,7.0,84,0.00,,,0.00,weatherlink.com 1.10,2017-09-20 07:37:00,
2017-09-20 03:52:00,67.6,62.0,29.87,North,357,0.0,7.0,83,0.00,,,0.00,weatherlink.com 1.10,2017-09-20 07:52:00,
2017-09-20 04:07:00,67.7,62.0,29.87,NE,51,0.0,9.0,83,0.00,,,0.00,weatherlink.com 1.10,2017-09-20 08:07:00,
2017-09-20 04:22:00,67.6,62.0,29.87,NNE,29,2.0,8.0,83,0.00,,,0.00,weatherlink.com 1.10,2017-09-20 08:22:00,
2017-09-20 04:37:00,67.8,63.0,29.87,North,7,0.0,10.0,83,0.00,,,0.00,weatherlink.com 1.10,2017-09-20 08:37:00,
2017-09-20 04:52:00,67.7,62.0,29.86,NNE,29,6.0,12.0,83,0.00,,,0.00,weatherlink.com 1.10,2017-09-20 08:52:00,
2017-09-20 05:09:00,67.6,62.0,29.86,NW,316,0.0,8.0,83,0.00,,,0.00,weatherlink.com 1.10,2017-09-20 09:09:00,
2017-09-20 05:24:00,67.3,62.0,29.87,NNW,342,0.0,10.0,83,0.00,,,0.00,weatherlink.com 1.10,2017-09-20 09:24:00,
2017-09-20 05:40:00,66.9,62.0,29.88,WNW,303,0.0,6.0,84,0.00,,,0.00,weatherlink.com 1.10,2017-09-20 09:40:00,
2017-09-20 05:55:00,66.5,62.0,29.89,WNW,291,0.0,6.0,84,0.00,,,0.00,weatherlink.com 1.10,2017-09-20 09:55:00,
2017-09-20 06:09:00,66.3,61.0,29.89,NW,315,0.0,7.0,84,0.00,,,0.00,weatherlink.com 1.10,2017-09-20 10:09:00,
2017-09-20 06:25:00,66.1,61.0,29.89,NW,312,1.0,5.0,84,0.00,,,0.00,weatherlink.com 1.10,2017-09-20 10:25:00,
2017-09-20 06:40:00,66.0,61.0,29.90,NNE,16,0.0,6.0,85,0.00,,,0.00,weatherlink.com 1.10,2017-09-20 10:40:00,
2017-09-20 06:56:00,65.8,61.0,29.91,NNW,333,0.0,4.0,85,0.00,,,0.00,weatherlink.com 1.10,2017-09-20 10:56:00,
2017-09-20 07:11:00,65.6,61.0,29.91,NNW,334,0.0,5.0,85,0.00,,,0.00,weatherlink.com 1.10,2017-09-20 11:11:00,
2017-09-20 07:26:00,65.7,61.0,29.92,WNW,292,0.0,5.0,85,0.00,,,0.00,weatherlink.com 1.10,2017-09-20 11:26:00,
2017-09-20 07:40:00,65.3,61.0,29.92,WNW,292,0.0,1.0,85,0.00,,,0.00,weatherlink.com 1.10,2017-09-20 11:40:00,
2017-09-20 07:55:00,65.0,61.0,29.92,WNW,296,0.0,4.0,86,0.00,,,0.00,weatherlink.com 1.10,2017-09-20 11:55:00,
2017-09-20 08:12:00,65.1,61.0,29.93,WNW,301,1.0,8.0,86,0.00,,,0.00,weatherlink.com 1.10,2017-09-20 12:12:00,
2017-09-20 08:27:00,65.7,61.0,29.92,West,276,0.0,7.0,85,0.00,,,0.00,weatherlink.com 1.10,2017-09-20 12:27:00,
2017-09-20 08:42:00,66.8,62.0,29.92,NW,314,0.0,8.0,84,0.00,,,0.00,weatherlink.com 1.10,2017-09-20 12:42:00,
2017-09-20 08:57:00,68.0,63.0,29.93,WNW,293,0.0,10.0,83,0.00,,,0.00,weatherlink.com 1.10,2017-09-20 12:57:00,
2017-09-20 09:12:00,69.4,64.0,29.93,NNE,28,4.0,11.0,82,0.00,,,0.00,weatherlink.com 1.10,2017-09-20 13:12:00,
2017-09-20 09:27:00,70.8,64.0,29.93,WNW,296,7.0,11.0,79,0.00,,,0.00,weatherlink.com 1.10,2017-09-20 13:27:00,
2017-09-20 09:42:00,71.4,64.0,29.93,ENE,76,7.0,12.0,78,0.00,,,0.00,weatherlink.com 1.10,2017-09-20 13:42:00,
2017-09-20 09:59:00,72.2,65.0,29.93,NE,44,7.0,18.0,77,0.00,,,0.00,weatherlink.com 1.10,2017-09-20 13:59:00,
2017-09-20 10:14:00,72.6,65.0,29.93,NW,320,0.0,13.0,77,0.00,,,0.00,weatherlink.com 1.10,2017-09-20 14:14:00,
2017-09-20 10:30:00,73.4,66.0,29.93,NE,55,4.0,11.0,78,0.00,,,0.00,weatherlink.com 1.10,2017-09-20 14:30:00,
2017-09-20 10:44:00,73.8,66.0,29.93,NNW,347,7.0,11.0,76,0.00,,,0.00,weatherlink.com 1.10,2017-09-20 14:44:00,
2017-09-20 11:00:00,75.0,67.0,29.93,NNW,328,0.0,9.0,77,0.00,,,0.00,weatherlink.com 1.10,2017-09-20 15:00:00,
2017-09-20 11:16:00,76.1,68.0,29.93,NW,312,3.0,12.0,75,0.00,,,0.00,weatherlink.com 1.10,2017-09-20 15:16:00,
2017-09-20 11:30:00,76.2,67.0,29.92,NNE,18,6.0,11.0,73,0.00,,,0.00,weatherlink.com 1.10,2017-09-20 15:30:00,
2017-09-20 11:45:00,76.3,67.0,29.93,East,90,4.0,14.0,72,0.00,,,0.00,weatherlink.com 1.10,2017-09-20 15:45:00,
2017-09-20 12:01:00,76.6,67.0,29.93,North,3,5.0,11.0,72,0.00,,,0.00,weatherlink.com 1.10,2017-09-20 16:01:00,
2017-09-20 12:15:00,77.1,67.0,29.93,NE,53,0.0,12.0,72,0.00,,,0.00,weatherlink.com 1.10,2017-09-20 16:15:00,
2017-09-20 12:30:00,78.4,69.0,29.92,NNE,18,8.0,9.0,72,0.00,,,0.00,weatherlink.com 1.10,2017-09-20 16:30:00,
2017-09-20 12:45:00,78.9,68.0,29.92,NNW,342,0.0,8.0,70,0.00,,,0.00,weatherlink.com 1.10,2017-09-20 16:45:00,
2017-09-20 13:01:00,79.2,68.0,29.92,ESE,114,6.0,12.0,69,0.00,,,0.00,weatherlink.com 1.10,2017-09-20 17:01:00,
2017-09-20 13:17:00,79.7,69.0,29.91,East,101,0.0,6.0,69,0.00,,,0.00,weatherlink.com 1.10,2017-09-20 17:17:00,
2017-09-20 13:32:00,79.4,69.0,29.91,NNW,341,7.0,8.0,71,0.00,,,0.00,weatherlink.com 1.10,2017-09-20 17:32:00,
2017-09-20 13:47:00,80.0,69.0,29.91,ENE,76,2.0,9.0,69,0.00,,,0.00,weatherlink.com 1.10,2017-09-20 17:47:00,
2017-09-20 14:02:00,80.5,68.0,29.91,NNE,19,0.0,8.0,66,0.00,,,0.00,weatherlink.com 1.10,2017-09-20 18:02:00,
2017-09-20 14:17:00,80.5,68.0,29.90,West,276,4.0,10.0,66,0.00,,,0.00,weatherlink.com 1.10,2017-09-20 18:17:00,
2017-09-20 14:32:00,80.9,68.0,29.90,NE,45,0.0,9.0,66,0.00,,,0.00,weatherlink.com 1.10,2017-09-20 18:32:00,
2017-09-20 14:50:00,81.3,69.0,29.90,NNE,20,0.0,6.0,67,0.00,,,0.00,weatherlink.com 1.10,2017-09-20 18:50:00,
2017-09-20 15:06:00,82.0,69.0,29.90,North,7,0.0,7.0,65,0.00,,,0.00,weatherlink.com 1.10,2017-09-20 19:06:00,
2017-09-20 15:19:00,82.4,69.0,29.90,NE,55,1.0,8.0,65,0.00,,,0.00,weatherlink.com 1.10,2017-09-20 19:19:00,
2017-09-20 15:36:00,82.2,68.0,29.89,NNW,342,5.0,8.0,63,0.00,,,0.00,weatherlink.com 1.10,2017-09-20 19:36:00,
2017-09-20 15:51:00,82.0,68.0,29.89,NE,49,0.0,10.0,63,0.00,,,0.00,weatherlink.com 1.10,2017-09-20 19:51:00,
2017-09-20 16:06:00,82.0,65.0,29.89,NNW,342,1.0,8.0,57,0.00,,,0.00,weatherlink.com 1.10,2017-09-20 20:06:00,
2017-09-20 16:20:00,82.2,67.0,29.90,East,79,1.0,6.0,61,0.00,,,0.00,weatherlink.com 1.10,2017-09-20 20:20:00,
2017-09-20 16:36:00,81.9,67.0,29.90,NW,321,0.0,9.0,61,0.00,,,0.00,weatherlink.com 1.10,2017-09-20 20:36:00,
2017-09-20 16:50:00,82.5,68.0,29.89,NNE,24,0.0,5.0,61,0.00,,,0.00,weatherlink.com 1.10,2017-09-20 20:50:00,
2017-09-20 17:05:00,82.2,66.0,29.90,NE,38,0.0,8.0,58,0.00,,,0.00,weatherlink.com 1.10,2017-09-20 21:05:00,
2017-09-20 17:21:00,82.1,67.0,29.90,NNE,22,0.0,5.0,60,0.00,,,0.00,weatherlink.com 1.10,2017-09-20 21:21:00,
2017-09-20 17:36:00,81.2,66.0,29.90,NNE,13,0.0,2.0,61,0.00,,,0.00,weatherlink.com 1.10,2017-09-20 21:36:00,
2017-09-20 17:50:00,80.6,65.0,29.90,West,263,0.0,4.0,59,0.00,,,0.00,weatherlink.com 1.10,2017-09-20 21:50:00,
2017-09-20 18:06:00,79.8,66.0,29.91,NNE,24,0.0,2.0,63,0.00,,,0.00,weatherlink.com 1.10,2017-09-20 22:06:00,
2017-09-20 18:22:00,79.0,66.0,29.91,NNE,26,0.0,0.0,65,0.00,,,0.00,weatherlink.com 1.10,2017-09-20 22:22:00,
2017-09-20 18:37:00,77.9,66.0,29.92,NNE,28,0.0,1.0,67,0.00,,,0.00,weatherlink.com 1.10,2017-09-20 22:37:00,
2017-09-20 18:52:00,76.9,65.0,29.93,NNE,28,0.0,1.0,67,0.00,,,0.00,weatherlink.com 1.10,2017-09-20 22:52:00,
2017-09-20 19:07:00,76.0,65.0,29.93,NNE,28,0.0,0.0,69,0.00,,,0.00,weatherlink.com 1.10,2017-09-20 23:07:00,
2017-09-20 19:22:00,74.4,66.0,29.93,NNE,28,0.0,0.0,74,0.00,,,0.00,weatherlink.com 1.10,2017-09-20 23:22:00,
2017-09-20 19:37:00,72.8,66.0,29.93,NNE,28,0.0,0.0,78,0.00,,,0.00,weatherlink.com 1.10,2017-09-20 23:37:00,
2017-09-20 19:54:00,71.6,66.0,29.94,NNE,28,0.0,0.0,81,0.00,,,0.00,weatherlink.com 1.10,2017-09-20 23:54:00,
2017-09-20 20:10:00,70.7,65.0,29.94,NNE,28,0.0,0.0,82,0.00,,,0.00,weatherlink.com 1.10,2017-09-21 00:10:00,
2017-09-20 20:24:00,70.0,65.0,29.94,NNE,28,0.0,0.0,83,0.00,,,0.00,weatherlink.com 1.10,2017-09-21 00:24:00,
2017-09-20 20:40:00,69.2,64.0,29.94,NNE,28,0.0,0.0,84,0.00,,,0.00,weatherlink.com 1.10,2017-09-21 00:40:00,